Погода в Санта-Барбара-д'Уэсти

Бразилия     22°45′15″S   47°24′53″W
темп.,
°C
ветер,
м/с
пор.,
м/с
влажн.,
%
обл.,
%
осадки,
мм/ч
давл.,
гПа
погр.,
м
1 марта, пн
пн100:00+20вюв2292100 2.9 101446
03:00+19вюв119279 3.1 101223
06:00+18св229338 0.0 101323
09:00+23св238164 0.0 1015361
12:00+26ссв3568100 1.1 1013883
15:00+26ссз346993 4.2 1011986
18:00+25ссв117569 0.6 101124
21:00+21вюв128358 1.9 101323
2 марта, вт
вт200:00+21в128569 0.0 101425
03:00+20св128883 0.0 101325
06:00+19св2291100 0.0 101438
09:00+24ссв247998 0.1 1016474
12:00+27ссв466672 1.1 10151121
15:00+28с346479 2.3 10121154
18:00+25с227685 0.3 101332
21:00+22св227993 1.2 101524
3 марта, ср
ср300:00+21св2387100 0.4 101644
03:00+19ссв229297 1.4 101634
06:00+19ссв2391100 0.0 101777
09:00+23ссв4877100 0.0 1018503
12:00+27с4568100 0.4 10171151
15:00+28с456098 0.8 10151584
18:00+25с237467 0.1 101449
21:00+22з117883 0.1 101623
4 марта, чт
чт400:00+21св1182100 0.0 101623
03:00+19св1283100 0.0 101523
06:00+20св2384100 0.0 101662
09:00+23ссв477798 0.0 1016490
12:00+26ссз567394 2.4 10151075
15:00+23с248697 6.8 1013202
18:00+23с228896 3.4 101248
21:00+20сз359387 5.2 1014133
5 марта, пт
пт500:00+20ссв1291100 0.3 101329
03:00+20с2695100 2.9 1012207
06:00+19ссз2596100 1.3 1012183
09:00+21ссз5990100 1.5 1013625
12:00+24сз5882100 0.8 1011973
15:00+24сз3681100 2.7 1009925
18:00+22сз2592100 4.8 1009149
21:00+21сз2394100 8.3 101064